Погода в Ярабайкасах

Россия / Чувашская Республика     56°00′06″N   46°53′17″E
темп.,
°C
ветер,
м/с
пор.,
м/с
влажн.,
%
обл.,
%
осадки,
мм/ч
давл.,
гПа
погр.,
м
16 апреля, пт
пт1600:00+9св7119670 0.0 1020301
03:00+8св71192100 0.0 1021408
06:00+7св61194100 0.0 1022426
09:00+8всв6108598 0.0 1023525
12:00+12всв786763 0.0 1024794
15:00+14всв786266 0.0 1024899
18:00+12всв6106753 0.0 1025667
21:00+7всв511766 0.0 1026360
17 апреля, сб
сб1700:00+5всв511755 0.0 1027281
03:00+3св410775 0.0 1027250
06:00+3всв511735 0.0 1028292
09:00+7всв69553 0.0 1028548
12:00+11всв67380 0.0 10271049
15:00+12всв67335 0.0 10261224
18:00+10всв47500 0.0 1026188
21:00+5всв410690 0.0 1026208
18 апреля, вс
вс1800:00+4всв310740 0.0 1026205
03:00+2всв48800 0.0 1027134
06:00+3всв410800 0.0 1026228
09:00+9в58570 0.0 1026768
12:00+12в67445 0.0 10251360
15:00+13в674244 0.0 10251743
18:00+10в5955100 0.0 1025389
21:00+6всв7137487 0.0 1027615
19 апреля, пн
пн1900:00+4всв6128196 0.0 1028433
03:00+3всв51174100 0.0 1029418
06:00+3в61269100 0.0 1029576
09:00+5в81049100 0.0 1030883
12:00+7в8103970 0.0 10301296
15:00+8в810375 0.0 10301509
18:00+6в7104531 0.0 10301059
21:00+3в6144876 0.0 1031506
20 апреля, вт
вт2000:00+2в7145285 0.0 1030454
03:00+2в6135677 0.0 1030437
06:00+1в6136490 0.0 1030406
09:00+4вюв8135588 0.0 1029783
12:00+6юв81355100 0.0 1029979
15:00+7юв91452100 0.0 10281030
18:00+7вюв71554100 0.0 1026818
21:00+7вюв81652100 0.0 1025758